ONEWEB-0279, 48997

Orbit data source: Space-Track

ONEWEB-0279, 48997 is a payload satellite owned by One Web (NAA) (UK) in LEO that was launched on Thu, 01 Jul 2021 UTC via a SOYUZ-2-1B launch vehicle from the Vostochny Cosmodrome (VOSTO). Payload-class satellites include a variety of spacecraft equipped with specific instruments for various scientific and technological missions. These include communications satellites like Starlink; space stations such as the ISS; scientific satellites like the Hubble; Earth observation satellites from companies like Planet Labs, Umbra, and HawkEye 360; GPS; miniature CubeSats for education and research; and military/defense satellites.

Loading next visibility...
Identifier
48997, 2021-060AG
Orbit
LEO
Country
Flag of UKUK
Related business
Manufacturer
One Web
Mission
Operational Commercial Communications
Bus & Motor
ARROW, Unknown motor
Mass
148 kg wet, ~140 kg dry
Launch date (UTC)
2021-07-01 (4 years ago)
Launch vehicle
SOYUZ-2-1B
Launch site
Vostochny Cosmodrome (VOSTO)
Object type
Payload
Rocket body
Debris
Shape & HBR
Trap Box + 2 Pan, 6.7 m
Radar Cross Section
3.464 m², Large (>1 m²)

Expand to show TLE details & history
Last TLE update: 9 hours ago

TLE from 9 hours ago
0 ONEWEB-0279
1 48997U 21060AG  25349.81710635 -.00000023  00000-0 -93142-4 0  9990
2 48997  87.9047 265.2820 0001995  71.2464 288.8884 13.16594972215491
Epoch: 2025-12-15T19:36Z
TLE epoch observation values (Epoch: 2025-12-15T19:36:37.988Z)
Latitude
0.00004°
Longitude
-113.58651°
Altitude
1,200.162 km
Speed
7.254 km/s
True Right ascension
17h 41m 07s
True Declination
0° 00' 00"
Sunlit
Object was in daylight at epoch
Visualization orbit readout
Latitude
Unknown
Longitude
Unknown
Altitude
Unknown
Speed
Unknown
Apparent Right ascension
Unknown
Apparent Declination
Unknown
Sunlit
N/A
Visualization observer readout
Local Sidereal Time
03:10:36
Azimuth
Unknown
Elevation
Unknown
Doppler factor
Unknown
Orbital elements
Apogee altitude
1,196.375 km
Perigee altitude
1,193.354 km
Semi-major axis
7,573.001 km
Eccentricity
0.0002
Inclination
87.9047°
RAAN
265.282°
Arg. of periapsis
71.2464°
True anomaly
288.86677°
Mean anomaly
288.8884°
Eccentric anomaly
288.87758°
Mean motion
3.29337 °/min
Orbital period
109.31 mins
BSTAR
-0.000093142
Loading maneuver chart data...
Computing Atmospheric mass density...
Loading historical data...
Loading historical data...
Loading historical data...
Loading historical data...
Loading historical data...
Loading historical data...
Loading historical data...

Documentation

Showing up to 5 results
|